Regional Weather Roundup
Issued by NWS

Home | Current Version | Previous Version | Graphics & Text | Print | Product List | Glossary On
Versions: 1 2 3 4 5 6 7 8 9 10 11 12 13 14 15 16 17 18 19 20 21 22 23 24 25 26 27 28 29 30 31 32 33 34 35 36 37 38 39 40 41 42 43 44 45 46 47 48 49 50
000
ASUS43 KLSX 270857
RWRMO

WEATHER SUMMARY FOR MISSOURI
NATIONAL WEATHER SERVICE SPRINGFIELD MO
400 AM CDT SAT MAY 27 2017

NOTE: "FAIR" INDICATES FEW OR NO CLOUDS BELOW 12,000 FEET WITH NO
       SIGNIFICANT WEATHER AND/OR OBSTRUCTIONS TO VISIBILITY.
       CURRENT SKY AND/OR WEATHER CONDITIONS ARE NOT AVAILABLE FOR
       CHILLICOTHE AND FARMINGTON.

MOZ001>031-035>038-043-044-053-054-271000-
...NORTHERN AND WESTERN MISSOURI...

CITY           SKY/WX    TMP DP  RH WIND       PRES   REMARKS
KANSAS CTY INT CLEAR     70  64  81 E8        29.83F
LEE`S SUMMIT   CLEAR     67  65  93 E5        29.84S
ST JOSEPH      CLOUDY    63  62  97 CALM      29.84S
CHILLICOTHE      N/A     63  62  97 CALM      29.87R

$$
MOZ066>068-077>081-088>096-101>105-271000-
...SOUTHWEST MISSOURI...

CITY           SKY/WX    TMP DP  RH WIND       PRES   REMARKS
SPRINGFIELD    PTCLDY    70  69  97 SE5       29.81F
JOPLIN         PTCLDY    73  70  90 SE6       29.79F

$$
MOZ032>034-039>042-045>050-055>058-069>072-271000-
...CENTRAL MISSOURI...

CITY           SKY/WX    TMP DP  RH WIND       PRES   REMARKS
COLUMBIA       NOT AVBL
JEFFERSON CITY FOG       67  64  90 CALM      29.84S VSB 3/4
ROLLA          CLOUDY    63  63 100 E5        29.84R FOG
SEDALIA        PTCLDY    66  66 100 E5        29.85S FOG
WARRENSBURG    CLEAR     63  63 100 E3        29.83S FOG

$$
MOZ051-052-059>065-271000-
...EAST CENTRAL MISSOURI...

CITY           SKY/WX    TMP DP  RH WIND       PRES   REMARKS
ST LOUIS INTL  PTCLDY    72  66  81 NE3       29.85S
SPIRIT OF STL  PTCLDY    68  68 100 CALM      29.83S FOG

$$
MOZ072>076-082>087-097>100-106>115-271000-
...SOUTH CENTRAL AND SOUTHEAST MISSOURI...

CITY           SKY/WX    TMP DP  RH WIND       PRES   REMARKS
CAPE GIRARDEAU CLOUDY    68  66  93 CALM      29.83F FOG
FARMINGTON     FOG       64  64 100 CALM      29.86S VSB 1/2
POPLAR BLUFF   CLOUDY    69  68  96 CALM      29.83S FOG
WEST PLAINS    CLOUDY    71  69  93 CALM      29.85F FOG

$$



USA.gov is the U.S. government's official web portal to all federal, state and local government web resources and services.